Regional Weather Roundup
Issued by NWS State College, PA

Home | Current Version | Previous Version | Text Only | Print | Product List | Glossary On
Versions: 1 2 3 4 5 6 7 8 9 10 11 12 13 14 15 16 17 18 19 20 21 22 23 24 25 26 27 28 29 30 31 32 33 34 35 36 37 38 39 40 41 42 43 44 45 46 47 48 49 50
000
ASUS41 KCTP 252003
RWRCTP

REGIONAL WEATHER ROUNDUP
NATIONAL WEATHER SERVICE STATE COLLEGE PA
400 PM EDT MON JUL 25 2016

Note: "fair" indicates few or no clouds below 12,000 feet with no
significant weather and/or obstructions to visibility.

* = STATION THAT DOES NOT REPORT PRECIPITATION /E.G. RAIN...SNOW...ETC/
    THUNDER OR FOG.

PAZ002>004-007>009-013>016-020>023-029>032-252100-
WESTERN PENNSYLVANIA

CITY           SKY/WX    TMP DP  RH WIND       PRES   REMARKS
ERIE           CLOUDY    80  73  79 W15G22    29.92S
MEADVILLE      CLOUDY    81  70  69 W9        29.95F
FRANKLIN*      CLOUDY    82  72  69 NW10G18   29.97F
NEW CASTLE     MOCLDY    88  70  55 NW12      29.94F
BEAVER COUNTY  MOSUNNY   88  70  55 W13G21    29.94F
BUTLER*        CLOUDY    88  73  62 W6        29.96F HX  96
PITTSBURGH INT CLOUDY    89  68  49 NW16G25   29.93F
PITTSBURGH     CLOUDY    77  69  76 S9        29.93S
INDIANA*       FOG       73  70  88 VRB3G21   29.98R VSB 1/4
LATROBE        PTSUNNY   90  72  55 SW12G21   29.92F HX  96
WASHINGTON CO* CLOUDY    77  68  73 SW6G29    29.94S THUNDER
$$

PAZ004>006-010>012-017>019-024>028-033>037-041-042-045-046-049>053-252100-
CENTRAL PENNSYLVANIA

CITY           SKY/WX    TMP DP  RH WIND       PRES   REMARKS
BRADFORD       MOSUNNY   72  68  87 SW5       29.97S
DUBOIS         CLOUDY    80  72  76 W9        29.95F
CLEARFIELD     TSTM      73  67  81 NW23G49   29.97R VSB 1/2
JOHNSTOWN      SUNNY     90  64  42 W15G23    29.97F
ALTOONA        SUNNY     94  66  39 W15G23    29.90F HX  97
STATE COLLEGE  SUNNY     95  72  46 W13       29.87F HX 103
WILLIAMSPORT   TSTM      78  70  76 N10       29.89R
SELINSGROVE    CLOUDY    84  76  76 SE7       29.84S
FT INDIANTOWN  CLOUDY    80  73  79 VRB3      29.86F
CAPITAL CITY   MOSUNNY   91  71  51 E6        29.84F HX  97
HARRISBURG     PTSUNNY   88  74  63 S3        29.83F HX  96
YORK           CLOUDY    95  73  48 SW8       29.85F HX 104
$$

PAZ038>040-043-044-047-048-054-055-060>062-067>071-252100-
EASTERN PENNSYLVANIA

CITY           SKY/WX    TMP DP  RH WIND       PRES   REMARKS
SCRANTON       CLOUDY    86  69  56 NE10      29.83F
MOUNT POCONO   LGT RAIN  82  69  64 CALM      29.94F
ALLENTOWN      PTSUNNY   90  71  53 S5        29.84F THUNDER HX  96
QUAKERTOWN*    PTCLDY    93  73  52 SW5       29.85F HX 102
READING        TSTM      92  73  53 SW14      29.82F HX 100
LANCASTER      CLOUDY    93  75  55 W8        29.85F HX 104
COATESVILLE    PTCLDY    90  79  70 VRB5      29.89S HX 105
POTTSTOWN      PTSUNNY   91  74  57 SW5       29.85F HX 100
BLUE BELL      MOSUNNY   90  73  58 SW9       29.83F HX  98
DOYLESTOWN     MOSUNNY   93  70  46 SW9       29.83F HX  99
WILLOW GROVE   NOT AVBL
NORTH PHILA    PTSUNNY   95  75  52 SW8       29.84F HX 107
PHILADELPHIA   PTSUNNY   96  75  50 SW16      29.84F HX 108
$$




USA.gov is the U.S. government's official web portal to all federal, state and local government web resources and services.